Regional Weather Roundup
Issued by NWS Green Bay, WI

Home | Current Version | Previous Version | Text Only | Print | Product List | Glossary On
Versions: 1 2 3 4 5 6 7 8 9 10 11 12 13 14 15 16 17 18 19 20 21 22 23 24 25 26 27 28 29 30 31 32 33 34 35 36 37 38 39 40 41 42 43 44 45 46 47 48 49 50
000
ASUS43 KGRB 280310
RWRGRB

NORTH-CENTRAL AND NORTHEAST WISCONSIN REGIONAL WEATHER ROUNDUP
NATIONAL WEATHER SERVICE GREEN BAY WI
1000 PM CDT WED AUG 27 2014

WIZ005-009-010>012-018-019-280400-
NORTH CENTRAL WISCONSIN

CITY           SKY/WX    TMP DP  RH WIND       PRES   REMARKS
IRONWOOD       NOT AVBL
MANITOWISH WTR CLEAR     48  48 100 CALM      30.18S
ARBOR VITAE    CLEAR     53  48  86 CALM      30.18S
EAGLE RIVER    CLEAR     49  47  93 CALM      30.18S
LAND O LAKES   CLEAR     46  45  96 CALM      30.20S
RHINELANDER    CLEAR     54  48  80 CALM      30.18S
PHILLIPS       CLEAR     53  50  90 CALM      30.17R
ANTIGO         CLEAR     54  52  95 CALM      30.17S
TOMAHAWK       CLEAR     55  50  83 CALM      30.18R
MERRILL        CLEAR     53  52  96 CALM      30.16R
$$

WIZ013-073-280400-
NORTHEAST WISCONSIN

CITY           SKY/WX    TMP DP  RH WIND       PRES   REMARKS
IRON MOUNTAIN  CLEAR     56  48  74 N5        30.16R
MARINETTE      PTCLDY    57  55  94 CALM      30.13S
OCONTO         CLEAR     56  56 100 CALM      30.14R
$$

WIZ017-030-035>037-045-280400-
CENTRAL WISCONSIN

CITY           SKY/WX    TMP DP  RH WIND       PRES   REMARKS
MEDFORD        CLEAR     52  52  99 CALM      30.17R
WAUSAU         CLEAR     61  52  72 CALM      30.14R
MOSINEE        CLEAR     63  55  77 N6        30.16S
MARSHFIELD     CLEAR     59  54  83 N3        30.15R
WISC RAPIDS    CLEAR     59  57  93 CALM      30.15R
STEVENS POINT  CLEAR     56  54  95 CALM      30.15S
WAUPACA        MOCLDY    64  62  93 CALM      30.14R
SHAWANO        MOCLDY    61  57  86 CALM      30.14S
CLINTONVILLE   PTCLDY    61  59  94 CALM      30.13S
$$

WIZ038-039-048-051-280400-
FOX VALLEY

CITY           SKY/WX    TMP DP  RH WIND       PRES   REMARKS
NWS GREEN BAY  CLEAR     60  57  89 SE5       30.15R
APPLETON       MOCLDY    64  59  82 SE7       30.15R
OSHKOSH        CLEAR     64  60  87 SE7       30.13R
FOND DU LAC    CLEAR     63  58  83 SE7       30.14R
$$

WIZ022-050-052-280400-
EAST CENTRAL WISCONSIN

CITY           SKY/WX    TMP DP  RH WIND       PRES   REMARKS
STURGEON BAY   CLEAR     59  54  82 E5        30.15S
MANITOWOC      CLEAR     58  56  93 CALM      30.16R
SHEBOYGAN      PTCLDY    57  55  93 CALM      30.15R
$$

LMZ563-521-522-541>543-280400-
LAKESHORE

STATION/POSITION TIME  TEMP    WIND        PRES    VSBY  WAVE
                       AIR SEA DIR/SP/G                  HT/PER
                 (UTC) (F)     (DEG/KT/KT) (MB)    (MI)  (FT/S)
SHEBOYGAN LKSHOR 0300   66 68   90/  7/  8 1021.2R
KEWAUNEE LKSHORE 0300   65     170/  5/  6 1019.8S
NORTHPORT PIER   0300   64     100/  8/ 10 1021.0R
N MID LAKE BUOY  0300   64 66   50/ 10/ 12 1021.0F         0
S GREEN BAY BUOY 0300   65     VRB 12      1021.3R
SISTER BAY LKSHO 0200   61     120/  4/  7   N/A
CHAMBERS ISLAND  0300   62     120/  4/  6 1021.0S
MENOMINEE LKSHOR 0300   66     160/  9/ 10 1021.0S
$$


USA.gov is the U.S. government's official web portal to all federal, state and local government web resources and services.